Location: Akdamlar
(36.8729°N, 30.5187°E)
Time: 19:56:18
(UTC+00:00)

SPOT 3 Rocket - Pass Details

Date: 18 September 2020
Orbit: 780 x 794 km, 98.8° (Epoch: 24 October)

Event Time Altitude Azimuth Distance (km) Brightness Sun altitude
Exits shadow 18:22:58 55° 7° (N) 935 3.9 -28.3°
Drops below altitude 10° 18:27:01 10° 350° (N) 2,339 6.4 -29.1°
Sets 18:29:21 0° 349° (N) 3,271 7.3 -29.5°
